Regional Weather Roundup
Issued by NWS

Home | Current Version | Previous Version | Text Only | Print | Product List | Glossary Off
Versions: 1 2 3 4 5 6 7 8 9 10 11 12 13 14 15 16 17 18 19 20 21 22 23 24 25 26 27 28 29 30 31 32 33 34 35 36 37 38 39 40 41 42 43 44 45 46 47 48 49 50

820
ASUS44 KJAN 220303
RWRMS

MISSISSIPPI HOURLY WEATHER ROUNDUP
NATIONAL WEATHER SERVICE JACKSON MS
900 PM CST SUN DEC 21 2014

NOTE: "FAIR: INDICATES FEW OR NO CLOUDS BELOW 12,000 FEET WITH NO
SIGNIFICANT WEATHER AND/OR OBSTRUCTIONS TO VISIBILITY.

MSZ001>002-007>008-010>013-018>021-025>028-034>036-220400-
NORTHWEST MISSISSIPPI

CITY           SKY/WX    TMP DP  RH WIND       PRES   REMARKS
CLARKSDALE     FAIR      48  45  87 SE12      29.96F
CLEVELAND      FAIR      46  41  84 SE6       29.94F
GREENWOOD      CLEAR     49  45  86 SE9       29.97F
GREENVILLE     CLEAR     46  40  79 E6        29.95R
GRENADA        FAIR      45  43  93 CALM      29.98F
OLIVE BRANCH   CLEAR     43  41  93 SE7       29.98F
OXFORD         FAIR      45  39  81 SE8       30.00F
TUNICA         CLEAR     45  37  76 E8        29.97S
$$

MSZ003>006-009-014>017-022>024-029>033-037>039-220400-
NORTHEAST MISSISSIPPI

CITY           SKY/WX    TMP DP  RH WIND       PRES   REMARKS
COLUMBUS AFB   CLOUDY    47  46  94 SE2       30.03F
CORINTH        FAIR      39  37  93 CALM      30.01S
GOLDN TRIANGLE CLOUDY    48  45  87 SE7       30.02F
STARKVILLE     CLOUDY    46  45  93 SE5       30.03S FOG
TUPELO         PTCLDY    44  39  82 S5        30.02S
$$

MSZ040-058-220400-
CENTRAL MISSISSIPPI

CITY           SKY/WX    TMP DP  RH WIND       PRES   REMARKS
JACKSON INTL   CLOUDY    50  48  93 SE9       30.00S
JACKSON HAWKNS CLOUDY    50  47  89 SE9       29.99F FOG
MERIDIAN KEY   CLOUDY    50  48  93 E3        30.03S FOG
MERIDIAN NAS   CLOUDY    48  47  96 E5        30.04R FOG
RAYMOND        CLOUDY    48  45  87 SE6       29.99S HAZE
VICKSBURG      PTCLDY    50  46  86 SE9       29.97S
$$

MSZ059>079-220400-
SOUTH MISSISSIPPI

CITY           SKY/WX    TMP DP  RH WIND       PRES   REMARKS
HATTIESBURG    CLOUDY    52  51  97 NE5       30.01F FOG
MCCOMB         CLOUDY    52  48  86 E3        29.98F
NATCHEZ        CLOUDY    54  48  82 SE6       29.97R
PINE BELT      CLOUDY    52  46  82 E3        30.02S
$$

MSZ080>082-220400-
COASTAL MISSISSIPPI

CITY           SKY/WX    TMP DP  RH WIND       PRES   REMARKS
BAY ST LOUIS   CLOUDY    55  52  88 E3        29.99S
BILOXI         CLOUDY    56  55  97 E7        29.98F
PASCAGOULA     CLOUDY    56  54  93 E6        29.99F
GULFPORT       CLOUDY    56  53  90 E8        29.98F FOG
$$



USA.gov is the U.S. government's official web portal to all federal, state and local government web resources and services.